When you browse on this site, cookies collect data to enhance your experience and personalize the content and advertising you see.
Visit our Privacy Policy to learn more. By continuing to use the site, you agree to this use of cookies and data.
  • En España
  • Lista de países
  • Para 7 días
  • Temperatura del agua
  • Mapa Satelital
  • El tiempo en el mapa
  • Informadores
  • user-avatar
    Iniciar sesión

    Tiempo cada hora Alcoi

    Hoy, 19 Julio, Viernes

    Tiempo Temperatura Precipitaciones Viento Presión Humedad
    00:00 +22°C° 0 mm 1 mps 715 mmHg 75%
    01:00 +22°C° 0 mm 1 mps 715 mmHg 76%
    02:00 +22°C° 0 mm 1 mps 715 mmHg 78%
    03:00 +21°C° 0 mm 1 mps 714 mmHg 79%
    04:00 +22°C° 0 mm 1 mps 715 mmHg 75%
    05:00 +23°C° 0 mm 1 mps 715 mmHg 71%
    06:00 +24°C° 0 mm 1 mps 715 mmHg 65%
    07:00 +25°C° 0 mm 1 mps 716 mmHg 56%
    08:00 +27°C° 0 mm 1 mps 716 mmHg 47%
    09:00 +29°C° 0 mm 1 mps 716 mmHg 39%
    10:00 +30°C° 0 mm 1 mps 716 mmHg 35%
    11:00 +32°C° 0 mm 2 mps 716 mmHg 32%
    12:00 +34°C° 0 mm 3 mps 717 mmHg 28%
    13:00 +34°C° 0 mm 3 mps 716 mmHg 29%
    14:00 +34°C° 0 mm 3 mps 716 mmHg 31%
    15:00 +34°C° 0 mm 3 mps 715 mmHg 32%
    16:00 +33°C° 0 mm 3 mps 715 mmHg 34%
    17:00 +31°C° 0 mm 3 mps 715 mmHg 37%
    18:00 +30°C° 0 mm 2 mps 714 mmHg 40%
    19:00 +28°C° 0 mm 2 mps 714 mmHg 47%
    20:00 +26°C° 0 mm 2 mps 714 mmHg 55%
    21:00 +24°C° 0 mm 1 mps 714 mmHg 62%
    22:00 +24°C° 0 mm 1 mps 714 mmHg 65%
    23:00 +23°C° 0 mm 1 mps 714 mmHg 68%

    Mañana, 20 Julio, Sábado

    Tiempo Temperatura Precipitaciones Viento Presión Humedad
    00:00 +23°C° 0 mm 1 mps 714 mmHg 71%
    01:00 +22°C° 0 mm 1 mps 714 mmHg 69%
    02:00 +22°C° 0 mm 1 mps 714 mmHg 68%
    03:00 +21°C° 0 mm 2 mps 713 mmHg 66%
    04:00 +23°C° 0 mm 2 mps 714 mmHg 67%
    05:00 +23°C° 0 mm 2 mps 714 mmHg 69%
    06:00 +23°C° 0 mm 1 mps 714 mmHg 70%
    07:00 +25°C° 0 mm 2 mps 714 mmHg 60%
    08:00 +27°C° 0 mm 2 mps 715 mmHg 49%
    09:00 +30°C° 0 mm 2 mps 715 mmHg 39%
    10:00 +31°C° 0 mm 3 mps 716 mmHg 34%
    11:00 +34°C° 0 mm 3 mps 716 mmHg 30%
    12:00 +36°C° 0 mm 4 mps 716 mmHg 26%
    13:00 +36°C° 0 mm 4 mps 716 mmHg 26%
    14:00 +36°C° 0 mm 4 mps 716 mmHg 27%
    15:00 +36°C° 0 mm 4 mps 716 mmHg 28%
    16:00 +34°C° 0 mm 4 mps 715 mmHg 33%
    17:00 +33°C° 0 mm 4 mps 715 mmHg 37%
    18:00 +32°C° 0 mm 4 mps 715 mmHg 41%
    19:00 +29°C° 0 mm 3 mps 716 mmHg 48%
    20:00 +27°C° 0 mm 2 mps 716 mmHg 55%
    21:00 +25°C° 0 mm 2 mps 716 mmHg 62%
    22:00 +25°C° 0 mm 2 mps 716 mmHg 62%
    23:00 +24°C° 0 mm 2 mps 716 mmHg 62%

    Pasado mañana, 21 Julio, Domingo

    Tiempo Temperatura Precipitaciones Viento Presión Humedad
    00:00 +24°C° 0 mm 2 mps 716 mmHg 63%
    01:00 +24°C° 0 mm 1 mps 716 mmHg 67%
    02:00 +23°C° 0 mm 1 mps 716 mmHg 71%
    03:00 +22°C° 0 mm 1 mps 715 mmHg 75%
    04:00 +23°C° 0 mm 1 mps 716 mmHg 76%
    05:00 +23°C° 0 mm 2 mps 716 mmHg 77%
    06:00 +23°C° 0 mm 2 mps 716 mmHg 78%
    07:00 +25°C° 0 mm 3 mps 717 mmHg 67%
    08:00 +28°C° 0 mm 3 mps 717 mmHg 55%
    09:00 +30°C° 0 mm 4 mps 718 mmHg 44%
    10:00 +32°C° 0 mm 5 mps 718 mmHg 39%
    11:00 +34°C° 0 mm 5 mps 719 mmHg 33%
    12:00 +36°C° 0 mm 6 mps 719 mmHg 28%
    13:00 +36°C° 0 mm 6 mps 719 mmHg 26%
    14:00 +36°C° 0 mm 6 mps 719 mmHg 25%
    15:00 +36°C° 0 mm 5 mps 719 mmHg 24%
    16:00 +35°C° 0 mm 5 mps 718 mmHg 26%
    17:00 +34°C° 0 mm 4 mps 718 mmHg 28%
    18:00 +33°C° 0 mm 4 mps 718 mmHg 31%
    19:00 +29°C° 0 mm 3 mps 718 mmHg 41%
    20:00 +27°C° 0 mm 2 mps 719 mmHg 51%
    21:00 +25°C° 0 mm 2 mps 719 mmHg 61%
    22:00 +24°C° 0 mm 1 mps 719 mmHg 65%
    23:00 +23°C° 0 mm 1 mps 719 mmHg 69%

    22 Julio, Lunes

    Tiempo Temperatura Precipitaciones Viento Presión Humedad
    00:00 +23°C° 0 mm 1 mps 719 mmHg 73%
    01:00 +23°C° 0 mm 1 mps 718 mmHg 72%
    02:00 +22°C° 0 mm 1 mps 718 mmHg 72%
    03:00 +21°C° 0 mm 2 mps 718 mmHg 72%
    04:00 +23°C° 0 mm 2 mps 718 mmHg 70%
    05:00 +23°C° 0 mm 2 mps 718 mmHg 69%
    06:00 +23°C° 0 mm 2 mps 718 mmHg 67%
    07:00 +26°C° 0 mm 2 mps 719 mmHg 56%
    08:00 +28°C° 0 mm 2 mps 719 mmHg 45%
    09:00 +30°C° 0 mm 2 mps 720 mmHg 33%
    10:00 +33°C° 0 mm 3 mps 720 mmHg 30%
    11:00 +34°C° 0 mm 3 mps 720 mmHg 26%
    12:00 +36°C° 0 mm 4 mps 720 mmHg 22%
    13:00 +36°C° 0 mm 4 mps 720 mmHg 21%
    14:00 +36°C° 0 mm 5 mps 720 mmHg 20%
    15:00 +36°C° 0 mm 5 mps 719 mmHg 20%
    16:00 +35°C° 0 mm 4 mps 719 mmHg 21%
    17:00 +34°C° 0 mm 3 mps 719 mmHg 22%
    18:00 +32°C° 0 mm 2 mps 718 mmHg 24%
    19:00 +30°C° 0 mm 1 mps 718 mmHg 32%
    20:00 +27°C° 0 mm 1 mps 718 mmHg 41%
    21:00 +23°C° 0 mm 0 mps 718 mmHg 50%
    22:00 +22°C° 0 mm 0 mps 718 mmHg 51%
    23:00 +22°C° 0 mm 0 mps 718 mmHg 53%

    23 Julio, Martes

    Tiempo Temperatura Precipitaciones Viento Presión Humedad
    00:00 +21°C° 0 mm 0 mps 717 mmHg 54%
    01:00 +21°C° 0 mm 0 mps 717 mmHg 55%
    02:00 +21°C° 0 mm 0 mps 717 mmHg 56%
    03:00 +22°C° 0 mm 1 mps 716 mmHg 57%
    04:00 +23°C° 0 mm 1 mps 717 mmHg 55%
    05:00 +22°C° 0 mm 0 mps 717 mmHg 52%
    06:00 +23°C° 0 mm 0 mps 717 mmHg 49%
    07:00 +27°C° 0 mm 1 mps 717 mmHg 42%
    08:00 +29°C° 0 mm 1 mps 718 mmHg 35%
    09:00 +31°C° 0 mm 1 mps 718 mmHg 27%
    10:00 +34°C° 0 mm 2 mps 718 mmHg 25%
    11:00 +35°C° 0 mm 3 mps 718 mmHg 22%
    12:00 +37°C° 0 mm 3 mps 718 mmHg 20%
    13:00 +37°C° 0 mm 4 mps 718 mmHg 20%
    14:00 +37°C° 0 mm 4 mps 718 mmHg 20%
    15:00 +37°C° 0 mm 4 mps 717 mmHg 20%
    16:00 +36°C° 0 mm 3 mps 717 mmHg 22%
    17:00 +35°C° 0 mm 3 mps 717 mmHg 24%
    18:00 +34°C° 0 mm 2 mps 717 mmHg 26%
    19:00 +31°C° 0 mm 2 mps 717 mmHg 33%
    20:00 +28°C° 0 mm 1 mps 717 mmHg 39%
    21:00 +24°C° 0 mm 0 mps 717 mmHg 46%
    22:00 +23°C° 0 mm 0 mps 716 mmHg 47%
    23:00 +22°C° 0 mm 0 mps 716 mmHg 49%

    24 Julio, Miércoles

    Tiempo Temperatura Precipitaciones Viento Presión Humedad
    00:00 +22°C° 0 mm 0 mps 716 mmHg 50%
    01:00 +21°C° 0 mm 0 mps 716 mmHg 51%
    02:00 +21°C° 0 mm 0 mps 715 mmHg 53%
    03:00 +21°C° 0 mm 0 mps 715 mmHg 54%
    04:00 +21°C° 0 mm 0 mps 715 mmHg 51%
    05:00 +22°C° 0 mm 0 mps 715 mmHg 49%
    06:00 +23°C° 0 mm 0 mps 715 mmHg 47%
    07:00 +25°C° 0 mm 0 mps 716 mmHg 40%
    08:00 +30°C° 0 mm 1 mps 716 mmHg 33%
    09:00 +32°C° 0 mm 1 mps 717 mmHg 26%
    10:00 +34°C° 0 mm 2 mps 717 mmHg 25%
    11:00 +35°C° 0 mm 3 mps 717 mmHg 23%
    12:00 +36°C° 0 mm 3 mps 717 mmHg 22%
    13:00 +36°C° 0 mm 3 mps 716 mmHg 23%
    14:00 +36°C° 0 mm 4 mps 716 mmHg 24%
    15:00 +36°C° 0 mm 4 mps 716 mmHg 25%
    16:00 +35°C° 0 mm 3 mps 715 mmHg 27%
    17:00 +34°C° 0 mm 3 mps 715 mmHg 29%
    18:00 +32°C° 0 mm 2 mps 715 mmHg 31%
    19:00 +30°C° 0 mm 1 mps 715 mmHg 38%
    20:00 +27°C° 0 mm 1 mps 715 mmHg 46%
    21:00 +25°C° 0 mm 1 mps 715 mmHg 53%
    22:00 +24°C° 0 mm 1 mps 715 mmHg 56%
    23:00 +24°C° 0 mm 1 mps 715 mmHg 58%
    Mostrar más